一网星座-0565星 (ONEWEB-0565)

导读 | 豆包AI

ONEWEB-0565是英国OneWeb公司的低轨互联网通信卫星,于2023年1月10日发射入轨,隶属于OneWeb全球卫星互联网星座。该星座旨在为全球偏远地区、基础设施薄弱区域提供高速宽带互联网接入服务。卫星运行在近地轨道,采用Ku/Ka频段传输信号,单星可提供大容量带宽覆盖,助力全球互联网络覆盖,是OneWeb完成第一代600余颗星座组网的重要组成卫星,推动全球卫星互联网服务部署。

基本信息
目录编号:
55146
目录名称:
ONEWEB-0565
国际标识:
2023-004G
轨道中心:
EARTH
卫星名称:
一网星座-0565星
卫星全名:
一网星座-0565星 (ONEWEB-0565)
卫星状态:
在轨 (已飞行1180 天)
发射日期:
2023-01-10 UTC
国别 :
英国 (GB)
星等 :
--
轨道信息
数据来源 国际轨道数据
星历时间: 2026-04-04T01:01:13+0800
7小时前
查看轨道信息
半长轴: 7567.874km
偏心率: 0.0001907
轨道倾角: 87.922°
近地点辐角 65.116°
升交点赤经 350.303°
平近点角 295.017°
近地点: 1188.293km
远地点: 1191.181km
周期: 109.199分钟
每日圈数: 13.186877
详细信息
平衡模式:
三轴稳定
覆盖范围:
全球
运营商:
一网卫星公司
运营商所在国:
英国
制造商(研发单位):
一网卫星公司
制造商所在国:
英国
使用方式:
暂无
卫星简介
OneWeb卫星网络由648颗重约125公斤的微型卫星组成,运行在1200公里的轨道上。 每颗卫星都能够提供至少每秒8千兆位的吞吐量,以使用其高吞吐量的Ku频段有效载荷为家庭和移动平台提供互联网接入。该卫星仍在工作。
2D轨道图
3D轨道图
轨道高度分析图
轨道倾角分析图
轨道综合分析图
查看轨道综合分析图